Location: *
(43.9900°N, 3.4811°E)
Time: 22:52:38
(UTC+00:00)

Cosmos 2315 Rocket - Pass Details

Date: 25 August 2019
Orbit: 965 x 1003 km, 82.9° (Epoch: 18 September)

Event Time Altitude Azimuth Distance (km) Brightness Sun altitude
Exits shadow 20:35:11 14° 183° (S) 2,464 5.8 -20.0°
Maximum altitude 20:40:44 85° 97° (E) 1,006 3.9 -20.8°
Drops below altitude 10° 20:47:06 10° 9° (N) 2,760 6.8 -21.7°
Sets 20:49:37 0° 9° (N) 3,707 7.5 -22.0°
